World > North America > United States > North Dakota

Breien, North Dakota Regional Weather

Lat: 46.38N, Lon: 100.94W
Wx Zone: NDZ045
Feedback

Breien, ND Regional Weather

Expires:201907220900;;446015
ASUS43 KBIS 220810
RWRND 

NORTH DAKOTA REGIONAL WEATHER ROUNDUP
NATIONAL WEATHER SERVICE BISMARCK ND
300 AM CDT MON JUL 22 2019

NOTE: "FAIR" INDICATES FEW OR NO CLOUDS BELOW 12,000 FEET WITH NO
SIGNIFICANT WEATHER AND/OR OBSTRUCTIONS TO VISIBILITY.



NDZ018>021-031>035-040>046-220900-
SOUTHWEST NORTH DAKOTA
  
CITY           SKY/WX    TMP DP  RH WIND       PRES   REMARKS
BISMARCK       CLEAR     57  55  93 CALM      30.31R                  
DICKINSON      CLEAR     53  51  93 S5        30.30S                  
GARRISON         N/A     54  52  93 CALM      30.30S                  
HETTINGER ARPT CLEAR     51  49  92 CALM      30.32F                  
$$
 

SKY/WX - Weather  TMP - Temperature  DP - Dew Point  RH - Relative Humidity
WIND - Wind Direction/Speed PRES - Barometric Pressure VSB - Visibility
WCI - Wind Chill Index E13G22 Wind - East Wind 13 mph/Gusts of 22 mph